Flag for Germany Weather past 2 weeks in Fürstenwalde/Spree, Brandenburg, Germany

Now
59 °F

Overcast.


Feels Like: 60 °F
Forecast: 51 / 60 °F
Wind: 3 mph from Northeast

Location: Lindenberg

Current Time: May 25, 2015 at 10:16:46 PM

Latest Report: May 25, 2015 at 10:00 PM


Visibility: 19 mi

Pressure: 29.86 "Hg

Humidity: 72%

Dew point: 50 °F

Location of Fürstenwalde/SpreeLocation

Historic Weather in Fürstenwalde/Spree — Graph

°F

Fürstenwalde/Spree temperature yesterday

Maximum temperature yesterday: 68 °F (at 4:00 PM)
Minimum temperature yesterday: 45 °F (at 4:00 AM)
Average temperature yesterday: 57 °F

Past Weeks' High & Low Weather Summary

 TemperatureHumidityPressure
High77 °F (May 12, 4:00 PM)97% (May 15, 6:00 AM)30.39 "Hg (May 15, 6:00 AM)
Low39 °F (May 11, 5:00 AM)25% (May 24, 6:00 PM)29.60 "Hg (May 19, 4:00 AM)
Average55 °F63%30.03 "Hg
* Reported May 10 9:00 PM — May 25 9:00 PM, Fürstenwalde/Spree, Weather by CustomWeather, © 2015

Note: Actual official high and low records may vary slightly from our data, if they occured in-between our weather recording intervals... More about our weather records

Advertising

Fürstenwalde/Spree weather history for previous 24 hours

 ConditionsComfort  
Time TempWeatherWind HumidityBarometerVisibility
9:00 PM
Mon, May 25
61 °FOvercast.2 mph62%29.83 "Hg25 mi
8:00 PM64 °FPartly sunny.2 mph54%29.83 "Hg22 mi
7:00 PM64 °FPartly sunny.2 mph72%29.81 "Hg22 mi
6:00 PM65 °FPartly sunny.2 mph64%29.82 "Hg25 mi
5:00 PM66 °FPartly sunny.1 mph59%29.83 "Hg25 mi
4:00 PM63 °FPartly sunny.1 mph74%29.84 "Hg22 mi
3:00 PM64 °FPartly sunny.2 mph67%29.85 "Hg25 mi
2:00 PM59 °FOvercast.1 mph89%29.86 "Hg22 mi
1:00 PM63 °FSprinkles. Partly sunny.3 mph71%29.86 "Hg22 mi
12:00 PM67 °FScattered clouds.2 mph53%29.88 "Hg22 mi
10:00 AM62 °FScattered clouds.1 mph67%29.91 "Hg19 mi
9:00 AM54 °FPartly sunny.1 mph80%29.93 "Hg19 mi
8:00 AM52 °FOvercast.1 mph85%29.94 "Hg19 mi
7:00 AM52 °FOvercast.1 mph78%29.95 "Hg19 mi
6:00 AM50 °FPartly sunny.3 mph77%29.96 "Hg19 mi
4:00 AM51 °FPassing clouds.3 mph66%29.96 "Hg28 mi
3:00 AM50 °FPassing clouds.2 mph62%29.98 "Hg28 mi
2:00 AM54 °FPassing clouds.2 mph47%29.99 "Hg28 mi
1:00 AM56 °FClear.2 mph42%30.00 "Hg28 mi
12:00 AM54 °FClear.3 mph48%30.01 "Hg31 mi
10:00 PM
Sun, May 24
58 °FPassing clouds.1 mph40%30.02 "Hg28 mi
Weather by CustomWeather, © 2015

See weather overviewHow to use our weather pages